Location: McCall
(45.0000°N, 116.0000°W)
Time: 22:29:09
(UTC-06:00)

Saudisat 1A - Visible Passes

Search period start: 01 August 2014 00:00
Search period end: 11 August 2014 00:00
Orbit: 599 x 608 km, 64.6° (Epoch: 01 August)

Date Brightness Start Highest point End Pass type
(mag) Time Alt. Az. Time Alt. Az. Time Alt. Az.
05 Aug 10.5 05:51:45 10° SSE 05:54:49 19° ESE 05:57:53 10° ENE visible
08 Aug 10.6 04:50:22 10° SE 04:52:38 14° ESE 04:54:54 10° ENE visible
09 Aug 9.8 05:01:07 10° S 05:04:44 25° ESE 05:08:23 10° ENE visible
10 Aug 8.8 05:13:24 14° S 05:16:57 46° ESE 05:21:12 10° NE visible
